星链-36715(STARLINK-36715)

导读

STARLINK-36715是美国SpaceX星链星座的一员,于2026年2月7日发射入轨。星链项目旨在构建全球卫星互联网星座,为全球偏远地区、海洋空域等提供高速低延迟的互联网接入服务,该卫星的成功发射进一步扩充了星链星座的在轨卫星规模,助力其全球覆盖网络的构建与服务能力提升。

Basic Information
目录编号:
67716
目录名称:
STARLINK-36715
国际标识:
2026-025Z
轨道中心:
EARTH
卫星名称:
星链-36715
卫星全名:
星链-36715(STARLINK-36715)
卫星状态:
在轨 (已飞行209 天)
发射日期:
2026-02-07 UTC
国别 :
美国 (US)
星等 :
--
Orbit Information
数据来源 国际轨道数据
星历时间: 2026-09-04T01:52:50+0800
15小时前
查看轨道信息
半长轴: 6843.637km
偏心率: 0.0000877
轨道倾角: 97.285°
近地点辐角 104.104°
升交点赤经 356.820°
平近点角 256.030°
近地点: 464.899km
远地点: 466.101km
周期: 93.905分钟
每日圈数: 15.334597
Detailed Information
固有亮度:
5
最大亮度:
2.5
卫星平台:
Starlink V1.0
覆盖范围:
全球
运营商:
太空探索技术公司
运营商所在国:
美国
制造商(研发单位):
太空探索技术公司
制造商所在国:
美国
使用方式:
暂无
Satellite Introduction
Starlink 计划是 SpaceX 推出的全球卫星互联网项目,通过发射低轨道卫星,为全球尤其是偏远地区提供高速、低延迟的互联网服务。自 2019 年起,Starlink 已部署数千颗卫星,旨在缩小全球数字鸿沟,推动互联网普及。该项目还为军事、航空等行业提供通信支持,带来广泛经济效益。
2D Orbit Map
3D Orbit Map
Orbit Altitude Analysis Chart
Orbit Inclination Analysis Chart
Orbit Comprehensive Analysis Chart
View Comprehensive Chart
Conjunction Data List
Event ID Objects TCA Miss Dist (km) Collision Risk Probability Collision Risk Index (CRI) Action
CDM_260904-160005-392906-771621
2026-09-04T
16:00:31+0000
2.784 km
极远距离
1.422139E-6 低风险 0.38
CDM_260905-104205-384006-771621
2026-09-05T
10:42:00+0000
2.948 km
极远距离
1.360478E-6 低风险 0.38
CDM_260904-223704-945306-771621
2026-09-04T
22:37:47+0000
2.983 km
极远距离
1.267601E-6 低风险 0.37
CDM_260905-141704-779906-771621
2026-09-05T
14:17:04+0000
2.943 km
极远距离
1.267324E-6 低风险 0.37
CDM_260905-214405-249706-771621
2026-09-05T
21:44:25+0000
2.595 km
极远距离
1.140113E-6 低风险 0.36